Regional Weather Roundup
Issued by NWS Huntsville, AL

Home | Current Version | Previous Version | Text Only | Print | Product List | Glossary On
Versions: 1 2 3 4 5 6 7 8 9 10 11 12 13 14 15 16 17 18 19 20 21 22 23 24 25 26 27 28 29 30 31 32 33 34 35 36 37 38 39 40 41 42 43 44 45 46 47 48 49 50
980
ASUS44 KHUN 210210
RWRHUN

WEATHER ROUNDUP FOR THE TENNESSEE VALLEY
NATIONAL WEATHER SERVICE HUNTSVILLE AL
900 PM CDT FRI OCT 20 2017

ALZ001>004-210300-
NORTHWEST ALABAMA

CITY           SKY/WX    TMP DP  RH WIND       PRES   REMARKS
COURTLAND HCN    N/A     54 N/A N/A CALM        N/A
RUSSELLVILLE     N/A     55 N/A N/A MISG        N/A
SHOALS AIRPORT PTCLDY    56  48  74 SE3       30.17S
SHOALS TVA RES   N/A     57 N/A N/A MISG        N/A
$$

ALZ005>007-016-210300-
NORTH CENTRAL ALABAMA

CITY           SKY/WX    TMP DP  RH WIND       PRES   REMARKS
CULLMAN AG STN   N/A     52 N/A N/A CALM        N/A
DECATUR AP     PTCLDY    56  50  80 E6        30.19R
HUNTSVILLE AP  CLOUDY    59  54  83 E3        30.18S
MERIDIANVILLE  CLOUDY    52  50  93 CALM      30.19S
REDSTONE ARSN  CLOUDY    55  51  86 CALM      30.18R
VINEMONT AP    FAIR      51  49  92 CALM      30.20S
$$

ALZ008>010-210300-
NORTHEAST ALABAMA

CITY           SKY/WX    TMP DP  RH WIND       PRES   REMARKS
ALBERTVILLE    CLOUDY    54  54 100 E3        30.19S
FORT PAYNE     CLOUDY    52  48  87 CALM      30.21S
SCOTTSBORO AP  CLOUDY    55  55 100 NE3       30.21R
SCOTTSBORO HCN   N/A     54 N/A N/A MISG        N/A
VALLEY HEAD      N/A     50 N/A N/A MISG        N/A
$$

TNZ076-096-097-210300-
SOUTHEASTERN MIDDLE TENNESSEE

CITY           SKY/WX    TMP DP  RH WIND       PRES   REMARKS
TULLAHOMA      CLEAR     50  48  93 CALM      30.22R
WINCHESTER     CLEAR     54  48  82 CALM        N/A
$$

...SURROUNDING SITES...

CITY           SKY/WX    TMP DP  RH WIND       PRES   REMARKS
ATLANTA        MOCLDY    66  46  48 CALM      30.22R
ANNISTON       CLOUDY    57  54  89 E3        30.20S
BIRMINGHAM     CLOUDY    59  52  77 CALM      30.20S
CHATTANOOGA    PTCLDY    57  53  86 CALM      30.22R
CORINTH        FAIR      55  54  94 CALM      30.14S
DALTON         CLEAR     54  54 100 CALM      30.23R
GADSDEN        CLEAR     53  52  96 CALM      30.20R
GOLDEN TRNGL   CLOUDY    68  58  70 E5        30.14R
HALEYVILLE     FAIR      55  55 100 CALM      30.19S
JACKSON TN     PTCLDY    53  53 100 CALM      30.14R
MEMPHIS        MOCLDY    68  55  63 SE5       30.11R
NASHVILLE      MOCLDY    59  50  72 S5        30.18S
OXFORD MS      FAIR      64  55  72 SE6       30.13S
ROME           CLEAR     54  53  97 CALM      30.21R
SAVANNAH       CLEAR     52  52 100 CALM      30.14S
SELMER         CLEAR     63  50  63 SE3       30.14S
TUPELO         PTCLDY    65  54  67 CALM      30.13S
TUSCALOOSA     PTCLDY    59  57  93 CALM      30.15S
$$

...GULF COAST WEATHER...

CITY           SKY/WX    TMP DP  RH WIND       PRES   REMARKS
GULFPORT       MOCLDY    73  68  84 E6        30.08S
PASCAGOULA     CLOUDY    71  65  81 E3        30.10R
MOBILE         MOCLDY    70  64  81 NE5       30.12S
GULF SHORES    PTCLDY    72  70  94 NE7       30.10R
PENSACOLA      CLOUDY    74  65  73 CALM      30.10R
DESTIN         CLOUDY    76  59  55 E6        30.11R
PANAMA CITY    CLOUDY    73  65  74 NE3       30.11S
APPALACHICOLA  PTCLDY    72  66  81 NE6       30.10R
$$





USA.gov is the U.S. government's official web portal to all federal, state and local government web resources and services.